| time (UTC) | temp F | wind direction | speed MPH | gust MPH | rain 1hr in | rain 24hr in | rain mn in | humidity % | barometer mb |
| 20260509222703 | 73 | 355 | 8.0 | 17.0 | 0.00 | 0.00 | 0.00 | 15 | 1027.4 |
| 20260509221803 | 73 | 335 | 7.0 | 16.0 | 0.00 | 0.00 | 0.00 | 15 | 1027.4 |
| 20260509220903 | 73 | 340 | 8.0 | 18.0 | 0.00 | 0.00 | 0.00 | 15 | 1027.4 |
| 20260509220004 | 73 | 1 | 6.0 | 14.0 | 0.00 | 0.00 | 0.00 | 14 | 1027.4 |
| 20260509215403 | 73 | 345 | 7.0 | 13.0 | 0.00 | 0.00 | 0.00 | 14 | 1027.4 |
| 20260509214504 | 73 | 329 | 8.0 | 18.0 | 0.00 | 0.00 | 0.00 | 14 | 1027.4 |
| 20260509213603 | 73 | 344 | 7.0 | 16.0 | 0.00 | 0.00 | 0.00 | 15 | 1027.4 |
| 20260509212703 | 73 | 333 | 6.0 | 15.0 | 0.00 | 0.00 | 0.00 | 14 | 1027.4 |
| 20260509211803 | 73 | 353 | 6.0 | 13.0 | 0.00 | 0.00 | 0.00 | 18 | 1027.4 |
| 20260509210904 | 72 | 360 | 5.0 | 12.0 | 0.00 | 0.00 | 0.00 | 18 | 1027.4 |
| 20260509210003 | 72 | 340 | 5.0 | 11.0 | 0.00 | 0.00 | 0.00 | 18 | 1027.4 |
| 20260509205403 | 72 | 355 | 5.0 | 13.0 | 0.00 | 0.00 | 0.00 | 18 | 1027.4 |
| 20260509204503 | 72 | 350 | 5.0 | 13.0 | 0.00 | 0.00 | 0.00 | 18 | 1027.4 |
| 20260509203603 | 72 | 355 | 5.0 | 12.0 | 0.00 | 0.00 | 0.00 | 17 | 1027.4 |
| 20260509202703 | 72 | 345 | 4.0 | 12.0 | 0.00 | 0.00 | 0.00 | 17 | 1027.4 |
| 20260509201803 | 71 | 358 | 7.0 | 12.0 | 0.00 | 0.00 | 0.00 | 20 | 1027.4 |
| 20260509200903 | 72 | 7 | 6.0 | 17.0 | 0.00 | 0.00 | 0.00 | 22 | 1027.4 |
| 20260509200004 | 72 | 346 | 5.0 | 14.0 | 0.00 | 0.00 | 0.00 | 19 | 1027.4 |
| 20260509195403 | 72 | 356 | 4.0 | 11.0 | 0.00 | 0.00 | 0.00 | 22 | 1027.4 |
| 20260509194524 | 72 | 14 | 4.0 | 12.0 | 0.00 | 0.00 | 0.00 | 22 | 1027.4 |
| 20260509193604 | 72 | 2 | 4.0 | 13.0 | 0.00 | 0.00 | 0.00 | 22 | 1027.4 |
| 20260509192725 | 72 | 7 | 4.0 | 10.0 | 0.00 | 0.00 | 0.00 | 19 | 1027.4 |
| 20260509191803 | 72 | 344 | 4.0 | 11.0 | 0.00 | 0.00 | 0.00 | 20 | 1027.4 |
| 20260509190904 | 72 | 344 | 4.0 | 11.0 | 0.00 | 0.00 | 0.00 | 22 | 1027.4 |
| 20260509190024 | 72 | 6 | 4.0 | 10.0 | 0.00 | 0.00 | 0.00 | 21 | 1027.4 |
| 20260509185403 | 71 | 2 | 5.0 | 14.0 | 0.00 | 0.00 | 0.00 | 21 | 1027.4 |
| 20260509184503 | 72 | 353 | 5.0 | 14.0 | 0.00 | 0.00 | 0.00 | 20 | 1027.4 |
| 20260509183603 | 71 | 4 | 4.0 | 13.0 | 0.00 | 0.00 | 0.00 | 21 | 1027.4 |
| 20260509182724 | 70 | 7 | 5.0 | 13.0 | 0.00 | 0.00 | 0.00 | 21 | 1027.4 |
| 20260509181803 | 70 | 3 | 6.0 | 16.0 | 0.00 | 0.00 | 0.00 | 20 | 1027.4 |
| 20260509180903 | 69 | 351 | 6.0 | 14.0 | 0.00 | 0.00 | 0.00 | 21 | 1027.4 |
| 20260509180003 | 69 | 5 | 6.0 | 20.0 | 0.00 | 0.00 | 0.00 | 23 | 1027.4 |
| 20260509175403 | 70 | 359 | 5.0 | 20.0 | 0.00 | 0.00 | 0.00 | 21 | 1027.4 |
| 20260509174503 | 69 | 353 | 6.0 | 13.0 | 0.00 | 0.00 | 0.00 | 22 | 1027.4 |
| 20260509173603 | 69 | 337 | 5.0 | 12.0 | 0.00 | 0.00 | 0.00 | 23 | 1027.4 |
| 20260509172703 | 69 | 347 | 5.0 | 14.0 | 0.00 | 0.00 | 0.00 | 26 | 1027.4 |
| 20260509171803 | 69 | 2 | 5.0 | 15.0 | 0.00 | 0.00 | 0.00 | 23 | 1027.4 |
| 20260509170903 | 69 | 22 | 6.0 | 14.0 | 0.00 | 0.00 | 0.00 | 23 | 1027.4 |
| 20260509170003 | 69 | 350 | 6.0 | 12.0 | 0.00 | 0.00 | 0.00 | 22 | 1027.4 |
| 20260509165403 | 70 | 324 | 6.0 | 15.0 | 0.00 | 0.00 | 0.00 | 23 | 1027.4 |
| 20260509164524 | 70 | 314 | 5.0 | 15.0 | 0.00 | 0.00 | 0.00 | 23 | 1027.4 |
| 20260509163624 | 69 | 338 | 6.0 | 12.0 | 0.00 | 0.00 | 0.00 | 24 | 1027.4 |
| 20260509162703 | 68 | 327 | 6.0 | 12.0 | 0.00 | 0.00 | 0.00 | 23 | 1027.4 |
| 20260509161803 | 68 | 323 | 7.0 | 14.0 | 0.00 | 0.00 | 0.00 | 23 | 1027.4 |
| 20260509160903 | 68 | 325 | 7.0 | 13.0 | 0.00 | 0.00 | 0.00 | 24 | 1027.4 |
| 20260509160003 | 68 | 358 | 6.0 | 13.0 | 0.00 | 0.00 | 0.00 | 25 | 1027.4 |
| 20260509155403 | 68 | 332 | 5.0 | 12.0 | 0.00 | 0.00 | 0.00 | 25 | 1027.4 |
| 20260509154503 | 67 | 329 | 5.0 | 12.0 | 0.00 | 0.00 | 0.00 | 26 | 1027.4 |
| 20260509153603 | 67 | 357 | 4.0 | 12.0 | 0.00 | 0.00 | 0.00 | 26 | 1027.4 |
| 20260509152703 | 67 | 339 | 4.0 | 12.0 | 0.00 | 0.00 | 0.00 | 27 | 1027.4 |
| 20260509151824 | 67 | 351 | 4.0 | 11.0 | 0.00 | 0.00 | 0.00 | 26 | 1027.4 |
| 20260509150903 | 66 | 356 | 4.0 | 10.0 | 0.00 | 0.00 | 0.00 | 26 | 1027.4 |
| 20260509150003 | 66 | 333 | 3.0 | 10.0 | 0.00 | 0.00 | 0.00 | 27 | 1027.4 |
| 20260509145403 | 66 | 337 | 4.0 | 10.0 | 0.00 | 0.00 | 0.00 | 26 | 1027.4 |
| 20260509144503 | 66 | 358 | 4.0 | 12.0 | 0.00 | 0.00 | 0.00 | 26 | 1027.4 |
| 20260509143603 | 65 | 355 | 4.0 | 9.0 | 0.00 | 0.00 | 0.00 | 27 | 1027.4 |
| 20260509142724 | 66 | 346 | 3.0 | 9.0 | 0.00 | 0.00 | 0.00 | 27 | 1027.4 |
| 20260509141824 | 65 | 356 | 4.0 | 10.0 | 0.00 | 0.00 | 0.00 | 28 | 1027.4 |
| 20260509140903 | 65 | 355 | 2.0 | 9.0 | 0.00 | 0.00 | 0.00 | 29 | 1027.4 |
| 20260509140004 | 64 | 296 | 1.0 | 5.0 | 0.00 | 0.00 | 0.00 | 31 | 1027.4 |
| 20260509135403 | 64 | 282 | 1.0 | 4.0 | 0.00 | 0.00 | 0.00 | 31 | 1027.4 |
| 20260509134503 | 62 | 296 | 1.0 | 4.0 | 0.00 | 0.00 | 0.00 | 33 | 1027.4 |
| 20260509133603 | 61 | 303 | 1.0 | 5.0 | 0.00 | 0.00 | 0.00 | 33 | 1027.4 |
| 20260509132724 | 60 | 293 | 1.0 | 5.0 | 0.00 | 0.00 | 0.00 | 35 | 1027.4 |
| 20260509131824 | 59 | 290 | 2.0 | 5.0 | 0.00 | 0.00 | 0.00 | 36 | 1027.4 |
| 20260509130924 | 58 | 288 | 2.0 | 8.0 | 0.00 | 0.00 | 0.00 | 36 | 1027.4 |
| 20260509130004 | 58 | 324 | 2.0 | 6.0 | 0.00 | 0.00 | 0.00 | 36 | 1027.4 |
| 20260509125403 | 57 | 338 | 2.0 | 6.0 | 0.00 | 0.00 | 0.00 | 36 | 1027.4 |
| 20260509124524 | 57 | 319 | 2.0 | 5.0 | 0.00 | 0.00 | 0.00 | 35 | 1027.4 |
| 20260509123603 | 57 | 293 | 2.0 | 7.0 | 0.00 | 0.00 | 0.00 | 34 | 1027.4 |
| 20260509122724 | 58 | 294 | 2.0 | 7.0 | 0.00 | 0.00 | 0.00 | 33 | 1027.4 |
| 20260509121803 | 58 | 306 | 3.0 | 8.0 | 0.00 | 0.00 | 0.00 | 32 | 1027.4 |
| 20260509120903 | 58 | 307 | 4.0 | 10.0 | 0.00 | 0.00 | 0.00 | 31 | 1027.4 |
| 20260509120003 | 58 | 303 | 5.0 | 9.0 | 0.00 | 0.00 | 0.00 | 31 | 1027.4 |
| 20260509115403 | 58 | 303 | 4.0 | 10.0 | 0.00 | 0.00 | 0.00 | 31 | 1027.4 |
| 20260509114503 | 58 | 302 | 2.0 | 8.0 | 0.00 | 0.00 | 0.00 | 31 | 1027.4 |
| 20260509113603 | 59 | 303 | 2.0 | 5.0 | 0.00 | 0.00 | 0.00 | 31 | 1027.4 |
| 20260509112724 | 59 | 299 | 3.0 | 7.0 | 0.00 | 0.00 | 0.00 | 30 | 1027.4 |
| 20260509111803 | 59 | 303 | 4.0 | 8.0 | 0.00 | 0.00 | 0.00 | 30 | 1027.4 |
| 20260509110903 | 60 | 301 | 4.0 | 10.0 | 0.00 | 0.00 | 0.00 | 30 | 1027.4 |
| 20260509110003 | 60 | 299 | 3.0 | 9.0 | 0.00 | 0.00 | 0.00 | 30 | 1027.4 |
| 20260509105403 | 60 | 299 | 4.0 | 10.0 | 0.00 | 0.00 | 0.00 | 30 | 1027.4 |
| 20260509104503 | 60 | 303 | 5.0 | 10.0 | 0.00 | 0.00 | 0.00 | 30 | 1027.4 |
| 20260509103603 | 60 | 306 | 5.0 | 12.0 | 0.00 | 0.00 | 0.00 | 30 | 1027.4 |
| 20260509102724 | 60 | 307 | 4.0 | 12.0 | 0.00 | 0.00 | 0.00 | 30 | 1027.4 |
| 20260509101803 | 60 | 302 | 4.0 | 11.0 | 0.00 | 0.00 | 0.00 | 30 | 1027.4 |
| 20260509100924 | 60 | 296 | 2.0 | 7.0 | 0.00 | 0.00 | 0.00 | 32 | 1027.4 |
| 20260509100004 | 61 | 291 | 1.0 | 5.0 | 0.00 | 0.00 | 0.00 | 32 | 1027.4 |
| 20260509095403 | 61 | 293 | 2.0 | 7.0 | 0.00 | 0.00 | 0.00 | 32 | 1027.4 |
| 20260509094503 | 61 | 300 | 3.0 | 11.0 | 0.00 | 0.00 | 0.00 | 32 | 1027.4 |
| 20260509093603 | 61 | 301 | 4.0 | 9.0 | 0.00 | 0.00 | 0.00 | 32 | 1027.4 |
| 20260509092703 | 60 | 303 | 3.0 | 10.0 | 0.00 | 0.00 | 0.00 | 34 | 1027.4 |
| 20260509091803 | 60 | 296 | 2.0 | 7.0 | 0.00 | 0.00 | 0.00 | 35 | 1027.4 |
| 20260509090924 | 60 | 292 | 2.0 | 8.0 | 0.00 | 0.00 | 0.00 | 37 | 1027.4 |
| 20260509090003 | 59 | 292 | 0.0 | 4.0 | 0.00 | 0.00 | 0.00 | 39 | 1027.4 |
| 20260509085403 | 60 | 292 | 0.0 | 2.0 | 0.00 | 0.00 | 0.00 | 41 | 1027.4 |
| 20260509084503 | 60 | 292 | 0.0 | 3.0 | 0.00 | 0.00 | 0.00 | 40 | 1027.4 |
| 20260509083624 | 60 | 292 | 0.0 | 2.0 | 0.00 | 0.00 | 0.00 | 44 | 1027.4 |
| 20260509082703 | 61 | 292 | 0.0 | 2.0 | 0.00 | 0.00 | 0.00 | 44 | 1027.4 |
| 20260509081803 | 61 | 0 | 0.0 | 0.0 | 0.00 | 0.00 | 0.00 | 43 | 1027.4 |
| 20260509080903 | 62 | 0 | 0.0 | 0.0 | 0.00 | 0.00 | 0.00 | 41 | 1027.4 |
| 20260509080003 | 62 | 0 | 0.0 | 0.0 | 0.00 | 0.00 | 0.00 | 40 | 1027.4 |
| 20260509075403 | 62 | 0 | 0.0 | 0.0 | 0.00 | 0.00 | 0.00 | 40 | 1027.4 |
| 20260509074503 | 62 | 352 | 1.0 | 4.0 | 0.00 | 0.00 | 0.00 | 38 | 1027.4 |
| 20260509073603 | 62 | 352 | 1.0 | 4.0 | 0.00 | 0.00 | 0.00 | 38 | 1027.4 |
| 20260509072703 | 62 | 354 | 2.0 | 6.0 | 0.00 | 0.00 | 0.00 | 40 | 1027.4 |
| 20260509071803 | 61 | 352 | 2.0 | 8.0 | 0.00 | 0.00 | 0.00 | 42 | 1027.4 |
| 20260509070903 | 60 | 351 | 1.0 | 6.0 | 0.00 | 0.00 | 0.00 | 41 | 1027.4 |
| 20260509070003 | 60 | 360 | 0.0 | 2.0 | 0.00 | 0.00 | 0.00 | 40 | 1027.4 |
| 20260509065424 | 60 | 0 | 0.0 | 0.0 | 0.00 | 0.00 | 0.00 | 39 | 1027.4 |
| 20260509064503 | 61 | 360 | 0.0 | 1.0 | 0.00 | 0.00 | 0.00 | 39 | 1027.4 |
| 20260509063603 | 62 | 360 | 0.0 | 5.0 | 0.00 | 0.00 | 0.00 | 37 | 1027.4 |
| 20260509062703 | 62 | 0 | 0.0 | 0.0 | 0.00 | 0.00 | 0.00 | 37 | 1027.4 |
| 20260509061803 | 63 | 360 | 0.0 | 2.0 | 0.00 | 0.00 | 0.00 | 35 | 1027.4 |
| 20260509060903 | 63 | 331 | 0.0 | 1.0 | 0.00 | 0.00 | 0.00 | 34 | 1027.4 |
| 20260509060004 | 63 | 354 | 1.0 | 4.0 | 0.00 | 0.00 | 0.00 | 33 | 1027.4 |
| 20260509055403 | 62 | 358 | 2.0 | 6.0 | 0.00 | 0.00 | 0.00 | 34 | 1027.4 |
| 20260509054524 | 62 | 360 | 0.0 | 3.0 | 0.00 | 0.00 | 0.00 | 34 | 1027.4 |
| 20260509053603 | 62 | 360 | 0.0 | 2.0 | 0.00 | 0.00 | 0.00 | 34 | 1027.4 |
| 20260509052703 | 62 | 360 | 0.0 | 2.0 | 0.00 | 0.00 | 0.00 | 36 | 1027.4 |
| 20260509051803 | 63 | 360 | 1.0 | 4.0 | 0.00 | 0.00 | 0.00 | 35 | 1027.4 |
| 20260509050903 | 64 | 0 | 0.0 | 0.0 | 0.00 | 0.00 | 0.00 | 34 | 1027.4 |
| 20260509050025 | 64 | 360 | 1.0 | 5.0 | 0.00 | 0.00 | 0.00 | 32 | 1027.4 |
| 20260509045403 | 65 | 346 | 0.0 | 2.0 | 0.00 | 0.00 | 0.00 | 32 | 1027.4 |
| 20260509044503 | 65 | 360 | 0.0 | 3.0 | 0.00 | 0.00 | 0.00 | 31 | 1027.4 |
| 20260509043603 | 66 | 359 | 2.0 | 4.0 | 0.00 | 0.00 | 0.00 | 29 | 1027.4 |
| 20260509042703 | 66 | 360 | 2.0 | 5.0 | 0.00 | 0.00 | 0.00 | 29 | 1027.4 |
| 20260509041824 | 66 | 360 | 1.0 | 4.0 | 0.00 | 0.00 | 0.00 | 30 | 1027.4 |
| 20260509040903 | 67 | 360 | 1.0 | 3.0 | 0.00 | 0.00 | 0.00 | 30 | 1027.4 |
| 20260509040003 | 67 | 360 | 1.0 | 4.0 | 0.00 | 0.00 | 0.00 | 30 | 1027.4 |
| 20260509035403 | 67 | 360 | 1.0 | 4.0 | 0.00 | 0.00 | 0.00 | 30 | 1027.4 |
| 20260509034503 | 67 | 360 | 1.0 | 4.0 | 0.00 | 0.00 | 0.00 | 30 | 1027.4 |
| 20260509033603 | 67 | 360 | 1.0 | 3.0 | 0.00 | 0.00 | 0.00 | 30 | 1027.4 |
| 20260509032724 | 68 | 360 | 1.0 | 3.0 | 0.00 | 0.00 | 0.00 | 31 | 1027.4 |
| 20260509031803 | 68 | 360 | 0.0 | 1.0 | 0.00 | 0.00 | 0.00 | 30 | 1027.4 |
| 20260509030924 | 69 | 0 | 0.0 | 0.0 | 0.00 | 0.00 | 0.00 | 29 | 1027.4 |
| 20260509030003 | 71 | 0 | 0.0 | 0.0 | 0.00 | 0.00 | 0.00 | 28 | 1027.4 |
| 20260509025403 | 72 | 0 | 0.0 | 0.0 | 0.00 | 0.00 | 0.00 | 28 | 1027.4 |
| 20260509024524 | 74 | 0 | 0.0 | 0.0 | 0.00 | 0.00 | 0.00 | 23 | 1027.4 |
| 20260509023624 | 75 | 0 | 0.0 | 0.0 | 0.00 | 0.00 | 0.00 | 22 | 1027.4 |
| 20260509022703 | 75 | 360 | 0.0 | 1.0 | 0.00 | 0.00 | 0.00 | 22 | 1027.4 |
| 20260509021804 | 76 | 360 | 0.0 | 3.0 | 0.00 | 0.00 | 0.00 | 22 | 1027.4 |
| 20260509020903 | 76 | 360 | 0.0 | 1.0 | 0.00 | 0.00 | 0.00 | 21 | 1027.4 |
| 20260509020004 | 76 | 6 | 0.0 | 2.0 | 0.00 | 0.00 | 0.00 | 20 | 1027.4 |
| 20260509015403 | 77 | 47 | 0.0 | 1.0 | 0.00 | 0.00 | 0.00 | 20 | 1027.4 |
| 20260509014504 | 77 | 44 | 0.0 | 2.0 | 0.00 | 0.00 | 0.00 | 19 | 1027.4 |
| 20260509013604 | 77 | 45 | 0.0 | 3.0 | 0.00 | 0.00 | 0.00 | 19 | 1027.4 |
| 20260509012703 | 78 | 51 | 1.0 | 4.0 | 0.00 | 0.00 | 0.00 | 19 | 1027.4 |
| 20260509011824 | 78 | 47 | 2.0 | 5.0 | 0.00 | 0.00 | 0.00 | 18 | 1027.4 |
| 20260509010904 | 78 | 45 | 0.0 | 4.0 | 0.00 | 0.00 | 0.00 | 19 | 1027.4 |
| 20260509010004 | 78 | 49 | 2.0 | 4.0 | 0.00 | 0.00 | 0.00 | 18 | 1027.4 |
| 20260509005403 | 78 | 35 | 1.0 | 7.0 | 0.00 | 0.00 | 0.00 | 18 | 1027.4 |
| 20260509004503 | 78 | 356 | 3.0 | 9.0 | 0.00 | 0.00 | 0.00 | 18 | 1027.4 |
| 20260509003603 | 78 | 327 | 3.0 | 9.0 | 0.00 | 0.00 | 0.00 | 18 | 1027.4 |
| 20260509002704 | 78 | 347 | 3.0 | 9.0 | 0.00 | 0.00 | 0.00 | 18 | 1027.4 |
| 20260509001825 | 78 | 350 | 3.0 | 11.0 | 0.00 | 0.00 | 0.00 | 19 | 1027.4 |
| 20260509000903 | 79 | 336 | 3.0 | 8.0 | 0.00 | 0.00 | 0.00 | 18 | 1027.4 |
| 20260509000004 | 79 | 340 | 3.0 | 11.0 | 0.00 | 0.00 | 0.00 | 18 | 1027.4 |
| 20260508235403 | 79 | 321 | 5.0 | 15.0 | 0.00 | 0.00 | 0.00 | 19 | 1027.4 |
| 20260508234503 | 79 | 308 | 4.0 | 12.0 | 0.00 | 0.00 | 0.00 | 19 | 1027.4 |
| 20260508233603 | 78 | 326 | 5.0 | 11.0 | 0.00 | 0.00 | 0.00 | 18 | 1027.4 |
| 20260508232703 | 78 | 340 | 2.0 | 8.0 | 0.00 | 0.00 | 0.00 | 19 | 1027.4 |
| 20260508231824 | 78 | 341 | 5.0 | 14.0 | 0.00 | 0.00 | 0.00 | 21 | 1027.4 |
| 20260508230903 | 77 | 16 | 6.0 | 13.0 | 0.00 | 0.00 | 0.00 | 19 | 1027.4 |
| 20260508230003 | 77 | 349 | 6.0 | 14.0 | 0.00 | 0.00 | 0.00 | 19 | 1027.4 |
| 20260508225403 | 78 | 334 | 7.0 | 15.0 | 0.00 | 0.00 | 0.00 | 19 | 1027.4 |
| 20260508224525 | 77 | 335 | 6.0 | 15.0 | 0.00 | 0.00 | 0.00 | 20 | 1027.4 |
| 20260508223624 | 77 | 337 | 8.0 | 17.0 | 0.00 | 0.00 | 0.00 | 20 | 1027.4 |